Weather History for Edinburgh Airport, United Kingdom

Change the Weather History Date:

Friday, May 17, 2013

  Actual Average Record
Temperature  
Mean Temperature 50 °F -  
Max Temperature 59 °F 61 °F 64 °F (1998)
Min Temperature 42 °F 45 °F 32 °F (2005)
Degree Days  
Heating Degree Days 14    
Moisture  
Dew Point 40 °F    
Average Humidity 69    
Maximum Humidity 100    
Minimum Humidity 45    
Precipitation  
Precipitation 0.00 in 0.07 in - ()
Sea Level Pressure  
Sea Level Pressure 29.81 in    
Wind  
Wind Speed 5 mph ()    
Max Wind Speed 12 mph    
Max Gust Speed -    
Visibility 6.2 miles    
Events      
Averages and records for this station are not official NWS values.
T = Trace of Precipitation, MM = Missing Value Source: Averaged Metar Reports

Daily Weather History Graph

Daily Weather History Graph

Search for Another Location

Airport:

Trip Planner

Search our weather history database for the weather conditions in past years. The results will help you decide how hot, cold, wet, or windy it might be!

Date:

Astronomy

May. 17, 2013 Rise Set
Actual Time 4:57 AM BST 9:23 PM BST
Civil Twilight 4:06 AM BST 10:14 PM BST
Nautical Twilight 2:46 AM BST 11:36 PM BST
Astronomical Twilight Sun does not rise Sun does not rise
Moon 11:46 AM BST (5/17) 1:41 AM BST (5/17)
Length of Visible Light 18h 08m
Length of Day
16h 26m
Waxing Crescent, 43% of the Moon is Illuminated
May 17
Waxing Crescent
May 18
First Quarter
May 25
Full
May 31
Last Quarter
Jun 8
New

Hourly Weather History & Observations

Time (BST) Temp. Windchill Dew Point Humidity Pressure Visibility Wind Dir Wind Speed Gust Speed Precip Events Conditions
12:20 AM 44.6 °F 39.7 °F 42.8 °F 93% 29.71 in 6.2 mi NE 9.2 mph - N/A   Scattered Clouds
12:50 AM 44.6 °F 40.2 °F 42.8 °F 93% 29.71 in 6.2 mi NE 8.1 mph - N/A   Scattered Clouds
1:20 AM 42.8 °F 39.3 °F 41.0 °F 93% 29.71 in 6.2 mi ENE 5.8 mph - N/A   Scattered Clouds
1:50 AM 42.8 °F 40.1 °F 42.8 °F 100% 29.71 in 6.2 mi NE 4.6 mph - N/A   Mostly Cloudy
2:20 AM 44.6 °F 41.4 °F 42.8 °F 93% 29.74 in 6.2 mi ENE 5.8 mph - N/A   Scattered Clouds
2:50 AM 42.8 °F 38.6 °F 41.0 °F 93% 29.74 in 6.2 mi ENE 6.9 mph - N/A   Partly Cloudy
3:20 AM 44.6 °F 41.4 °F 41.0 °F 87% 29.74 in 6.2 mi NE 5.8 mph - N/A   Overcast
3:50 AM 44.6 °F 41.4 °F 42.8 °F 93% 29.74 in 6.2 mi NE 5.8 mph - N/A   Overcast
4:20 AM 44.6 °F 42.2 °F 42.8 °F 93% 29.77 in 6.2 mi NNE 4.6 mph - N/A   Mostly Cloudy
4:50 AM 42.8 °F - 41.0 °F 93% 29.77 in 6.2 mi North 2.3 mph - N/A   Scattered Clouds
5:20 AM 42.8 °F - 41.0 °F 93% 29.77 in 6.2 mi NNE 2.3 mph - N/A   Partly Cloudy
5:50 AM 42.8 °F - 41.0 °F 93% 29.77 in 6.2 mi North 2.3 mph - N/A   Partly Cloudy
6:20 AM 42.8 °F - 41.0 °F 93% 29.77 in 6.2 mi ENE 2.3 mph - N/A   Partly Cloudy
6:50 AM 44.6 °F - 42.8 °F 93% 29.80 in 6.2 mi NE 2.3 mph - N/A   Partly Cloudy
7:20 AM 44.6 °F - 42.8 °F 93% 29.80 in 6.2 mi Variable 2.3 mph - N/A   Partly Cloudy
7:50 AM 46.4 °F 43.5 °F 42.8 °F 87% 29.80 in 6.2 mi ENE 5.8 mph - N/A   Partly Cloudy
8:20 AM 48.2 °F - 41.0 °F 76% 29.83 in 6.2 mi NE 5.8 mph - N/A   Partly Cloudy
8:50 AM 48.2 °F - 39.2 °F 71% 29.83 in 6.2 mi ENE 6.9 mph - N/A   Partly Cloudy
9:20 AM 50.0 °F - 37.4 °F 62% 29.83 in 6.2 mi NE 8.1 mph - N/A   Partly Cloudy
9:50 AM 50.0 °F - 35.6 °F 58% 29.83 in 6.2 mi ENE 8.1 mph - N/A   Partly Cloudy
10:20 AM 50.0 °F - 35.6 °F 58% 29.83 in 6.2 mi East 8.1 mph - N/A   Partly Cloudy
10:50 AM 51.8 °F - 37.4 °F 58% 29.83 in 6.2 mi NE 5.8 mph - N/A   Partly Cloudy
11:20 AM 53.6 °F - 37.4 °F 54% 29.83 in 6.2 mi ENE 5.8 mph - N/A   Partly Cloudy
11:50 AM 53.6 °F - 35.6 °F 51% 29.83 in 6.2 mi NE 5.8 mph - N/A   Partly Cloudy
12:20 PM 55.4 °F - 35.6 °F 47% 29.83 in 6.2 mi Variable 4.6 mph - N/A   Partly Cloudy
12:50 PM 55.4 °F - 37.4 °F 51% 29.83 in 6.2 mi North 4.6 mph - N/A   Partly Cloudy
1:20 PM 55.4 °F - 35.6 °F 47% 29.83 in 6.2 mi Variable 4.6 mph - N/A   Partly Cloudy
1:50 PM 57.2 °F - 39.2 °F 51% 29.83 in 6.2 mi Variable 4.6 mph - N/A   Partly Cloudy
2:20 PM 59.0 °F - 37.4 °F 45% 29.83 in 6.2 mi Variable 5.8 mph - N/A   Partly Cloudy
2:50 PM 59.0 °F - 37.4 °F 45% 29.83 in 6.2 mi Variable 5.8 mph - N/A   Partly Cloudy
3:20 PM 59.0 °F - 37.4 °F 45% 29.83 in 6.2 mi North 5.8 mph - N/A   Partly Cloudy
3:50 PM 57.2 °F - 37.4 °F 48% 29.83 in 6.2 mi NNE 5.8 mph - N/A   Partly Cloudy
4:20 PM 57.2 °F - 37.4 °F 48% 29.83 in - NE 3.5 mph - N/A   Clear
4:50 PM 59.0 °F - 37.4 °F 45% 29.83 in - Variable 3.5 mph - N/A   Clear
5:20 PM 57.2 °F - 39.2 °F 51% 29.83 in 6.2 mi NE 10.4 mph - N/A   Partly Cloudy
5:50 PM 55.4 °F - 41.0 °F 58% 29.83 in 6.2 mi NE 11.5 mph - N/A   Partly Cloudy
6:20 PM 55.4 °F - 39.2 °F 54% 29.83 in 6.2 mi East 10.4 mph - N/A   Partly Cloudy
6:50 PM 55.4 °F - 37.4 °F 51% 29.83 in 6.2 mi East 8.1 mph - N/A   Partly Cloudy
7:20 PM 55.4 °F - 39.2 °F 54% 29.83 in - East 6.9 mph - N/A   Clear
7:50 PM 53.6 °F - 39.2 °F 58% 29.86 in - NE 4.6 mph - N/A   Clear
8:20 PM 53.6 °F - 41.0 °F 62% 29.86 in - NNE 4.6 mph - N/A   Clear
8:50 PM 51.8 °F - 41.0 °F 67% 29.86 in - NNE 4.6 mph - N/A   Clear
9:20 PM 51.8 °F - 41.0 °F 67% 29.86 in - NNE 3.5 mph - N/A   Clear
9:50 PM 51.8 °F - 41.0 °F 67% 29.86 in - Variable 3.5 mph - N/A   Clear
10:20 PM 51.8 °F - 41.0 °F 67% 29.86 in - Variable 2.3 mph - N/A   Clear
10:50 PM 51.8 °F - 41.0 °F 67% 29.86 in - North 4.6 mph - N/A   Clear
11:20 PM 51.8 °F - 41.0 °F 67% 29.86 in - North 5.8 mph - N/A   Clear
11:50 PM 51.8 °F - 41.0 °F 67% 29.86 in - NNW 5.8 mph - N/A   Clear